User: anonymous   Login
Location: Ostrava
(49.8330°N, 18.2830°E)
Time: 00:23:24
(UTC+02:00)
Language:

NOAA 19 - Orbit

View from above orbital plane
View from above orbital plane
View from above satellite
View from above satellite

Ground track
Ground track

The orbit data is extracted from the following two-line orbital elements,

1 33591U 09005A   17114.91770600 +.00000112 +00000-0 +85776-4 0  9990
2 33591 099.0876 081.0015 0014981 063.8446 296.4264 14.12173700422873
Epoch (UTC): 24 April 2017 22:01:29
Eccentricity: 0.0014981
inclination: 99.0876°
perigee height: 841 km
apogee height: 863 km
right ascension of ascending node: 81.0015°
argument of perigee: 63.8446°
revolutions per day: 14.12173700
mean anomaly at epoch: 296.4264°
orbit number at epoch: 42287

The dashed part of the orbit path shows where the satellite is in the earth's shadow,  

DLR